Hourly Data Report for September 15, 2017

All times are specified in Local Standard Time (LST). Add 1 hour to adjust for Daylight Saving Time where and when it is observed.

EUREKA CLIMATE
NUNAVUT

79°59'21.000" N
85°56'02.000" W
10.00 m
2401199
71613
NEK

Download Data

Hourly Data (September 2017)
Hourly Data Report for September 15, 2017
Temp Definition
°C
Dew Point Temp Definition
°C
Rel Hum Definition
%
Wind Dir Definition
10's deg

Wind Spd Definition
km/h
Visibility Definition
km
Stn Press Definition
kPa
Hmdx Definition


Wind Chill Definition


Weather Definition


TIME
00:00 -7.8 -8.7 94 10 2   101.10   -9 LegendNANA
01:00 -7.8 -8.7 94 36 2   101.02   -9 LegendNANA
02:00 -7.7 -8.5 93 4 3   100.95   -9 LegendNANA
03:00 -7.3 -8.3 93 10 2   100.87   -8 LegendNANA
04:00 -7.0 -8.8 87 9 3   100.80   -9 LegendNANA
05:00 -6.6 -8.7 85 10 11   100.71   -12 LegendNANA
06:00 -6.5 -8.6 85 11 13   100.61   -12 LegendNANA
07:00 -6.6 -8.6 86 13 16   100.51   -13 LegendNANA
08:00 -6.6 -8.4 87 13 18   100.41   -13 LegendNANA
09:00 -7.0 -7.9 94 15 18   100.32   -14 LegendNANA
10:00 -6.8 -7.8 92 14 19   100.24   -14 LegendNANA
11:00 -6.7 -7.9 91 15 23   100.15   -14 LegendNANA
12:00 -6.5 -7.5 93 15 22   100.06   -14 LegendNANA
13:00 -6.3 -7.2 93 14 17   99.98   -13 LegendNANA
14:00 -6.1 -6.9 94 12 27   99.91   -14 LegendNANA
15:00 -5.7 -6.1 97 13 26   99.83   -13 LegendNANA
16:00 -5.1 -5.4 98 13 27   99.73   -13 LegendNANA
17:00 -4.4 -4.6 98 13 27   99.68   -12 LegendNANA
18:00 -4.0 -4.2 99 15 24   99.60   -11 LegendNANA
19:00 -3.4 -3.8 97 16 27   99.53   -11 LegendNANA
20:00 -3.2 -3.3 99 17 34   99.48   -11 LegendNANA
21:00 -2.9 -3.2 98 16 30   99.45   -10 LegendNANA
22:00 -2.6 -3.0 97 16 30   99.42   -10 LegendNANA
23:00 -2.4 -2.8 97 16 34   99.39   -10 LegendNANA

Notes on Data Quality.

Legend

  • E = Estimated
  • M = Missing
  • NA = Not Available
  • ‡ = Partner data that is not subject to review by the National Climate Archives
Date modified: